Wind_Speed
25 25 20 18 15 17 18 20 19 19 18 18 17 18 19 16 17 19 25 27 27 29 8 7 9 8 6 7 6 6 3 3 5 7 6 3 4 5 6 3 1 2 3 8 13 16 7 11 1 5 6 1 2 3
20 20 21 22 23 22 23 24 22 19 17 18 17 18 20 20 16 18 20 25 29 28 17 10 11 12 11 9 5 4 1 3 4 4 5 3 2 4 3 4 6 7 3 2 8 3 11 8 10 7 7 7 3 5
17 17 19 21 24 27 26 23 22 20 18 17 17 18 19 20 20 17 20 21 26 29 29 16 13 17 14 9 9 5 4 8 8 11 4 2 1 3 3 3 2 5 9 4 3 4 8 6 5 5 8 6 3 8
20 19 20 19 17 16 16 17 17 17 15 14 14 17 18 19 20 21 20 22 20 20 14 11 14 16 13 9 13 9 8 7 6 6 4 4 5 4 2 1 3 2 3 4 7 4 3 4 5 5 7 9 4 7
23 22 21 20 17 17 15 14 14 13 11 10 11 15 16 17 18 19 20 20 20 23 11 10 15 13 13 13 9 7 8 6 5 4 4 5 6 5 6 6 5 6 6 3 2 3 8 5 9 8 6 3 4 6
25 23 20 18 15 15 14 13 12 9 7 10 12 9 13 16 17 16 18 19 20 26 17 8 11 16 12 13 11 9 7 9 9 7 7 7 11 12 5 7 7 8 6 9 5 7 8 6 7 7 6 5 5 3
22 22 21 20 17 16 14 12 12 13 13 13 13 16 16 16 16 19 21 21 23 27 23 6 14 16 15 15 10 8 10 8 8 9 10 8 11 8 7 9 3 5 6 11 11 12 8 7 8 8 8 9 13 6
24 22 21 18 15 16 15 13 14 15 15 13 13 15 16 15 16 18 21 19 20 26 29 8 6 16 14 14 13 11 8 7 8 9 8 10 12 9 6 4 8 10 9 9 10 11 9 8 11 10 9 13 8 6
18 18 19 17 15 14 14 13 14 15 15 14 15 16 15 15 15 19 20 20 19 27 19 20 17 13 16 15 15 11 11 10 8 10 11 10 12 14 8 9 6 11 12 9 10 9 10 9 11 12 9 8 8 7
19 18 15 14 15 14 11 13 11 10 11 15 16 15 13 17 15 13 13 15 16 26 25 21 18 21 15 19 17 13 10 11 8 12 13 14 18 19 21 17 14 13 12 8 8 9 10 12 17 16 13 13 10 9
14 14 13 13 12 11 9 8 5 8 14 17 18 15 14 14 14 11 8 10 9 13 27 25 17 15 16 20 20 14 13 9 10 12 11 12 15 11 12 15 14 16 13 10 12 17 15 15 16 17 17 15 13 8
13 12 11 11 11 9 8 7 7 14 16 20 20 13 14 16 10 8 11 10 10 17 11 25 21 12 24 14 14 18 10 10 6 10 11 13 13 14 15 12 12 16 11 12 12 12 14 19 23 20 20 17 11 13
12 11 11 8 9 10 9 8 9 17 17 19 20 14 14 12 11 10 12 11 15 10 15 18 21 20 15 18 9 9 6 7 7 9 7 17 12 19 11 9 8 8 10 13 15 12 17 15 17 16 12 12 16 18
12 11 9 8 7 6 7 9 11 21 23 23 17 16 10 8 10 11 12 13 14 17 16 17 24 18 15 17 9 7 10 8 9 8 17 11 16 8 7 9 10 9 9 10 10 16 16 18 21 21 20 20 18 20
12 9 8 10 8 5 3 6 13 21 26 19 11 9 13 8 15 10 10 12 19 13 13 18 19 18 18 16 15 11 9 9 11 16 14 18 17 12 11 12 10 9 11 14 18 18 18 19 17 15 15 15 19 20
12 10 9 10 10 5 2 4 8 19 21 15 12 9 8 11 10 7 9 11 19 17 16 22 20 16 16 14 16 14 13 10 13 13 17 19 16 12 11 11 8 12 14 14 15 16 17 16 14 15 15 16 18 16
11 10 9 10 14 11 4 3 10 14 8 9 11 17 15 6 12 16 12 15 19 17 23 24 20 16 9 15 14 20 18 13 10 16 17 10 10 8 7 7 13 14 16 16 15 17 14 12 15 15 14 13 16 16
10 11 13 8 17 10 11 7 6 3 4 8 8 2 4 9 8 5 23 14 26 18 23 18 12 8 7 10 13 11 13 17 22 15 15 10 15 14 9 7 14 14 13 12 11 10 11 13 13 13 14 10 11 13
10 10 9 13 11 9 16 13 9 5 9 8 8 7 6 9 9 6 9 6 8 12 21 22 15 21 14 12 11 19 14 10 8 8 13 17 17 15 9 8 13 13 12 12 11 11 13 11 10 10 10 9 3 2
9 10 8 15 11 8 12 8 10 9 4 8 12 12 10 10 9 10 11 11 14 19 24 14 10 11 15 22 9 8 12 18 18 16 15 17 15 12 9 11 11 13 11 12 11 12 12 9 10 12 10 12 9 8
11 7 12 15 12 11 8 6 7 6 7 12 9 13 18 13 13 13 13 14 16 15 12 13 6 13 9 12 21 15 12 8 6 10 13 20 18 13 13 13 13 12 11 12 11 12 16 12 9 12 13 11 12 7
14 11 8 11 10 10 10 9 8 8 10 8 7 10 16 17 21 21 19 19 19 19 18 17 17 14 14 11 8 14 15 19 20 18 21 19 15 15 16 16 15 14 13 13 11 13 12 12 11 11 11 6 6 7
12 10 14 9 7 8 6 9 10 9 7 4 6 11 12 12 15 16 24 26 22 21 21 20 21 27 25 19 16 16 20 22 19 12 18 17 15 14 14 14 15 16 14 15 14 14 18 12 15 13 12 11 9 10
12 9 6 4 7 4 5 8 9 9 10 10 8 11 12 13 13 17 18 11 11 8 9 15 18 16 15 20 24 21 21 18 14 12 20 18 21 14 14 12 16 16 15 15 16 15 19 16 15 15 14 9 4 8
11 10 6 8 6 6 6 6 7 7 6 4 8 9 6 6 7 9 7 10 17 14 18 19 20 23 17 19 18 13 17 19 12 18 22 19 17 13 15 16 17 15 16 17 18 16 16 18 14 13 13 12 11 10
11 7 7 5 6 5 4 4 6 8 11 10 8 7 6 6 5 3 6 2 6 15 13 7 6 8 17 25 30 22 24 20 16 21 24 19 19 22 22 20 18 17 20 18 18 17 17 18 15 12 11 13 15 15
6 4 7 8 3 3 4 7 11 8 7 7 6 5 4 3 5 7 13 2 13 4 3 4 5 13 12 9 14 21 23 19 21 18 15 21 25 22 21 19 19 19 22 18 17 18 18 16 14 12 11 12 12 10
6 6 4 5 8 5 8 7 9 11 10 12 12 9 5 3 7 2 3 13 6 1 4 1 3 8 7 5 6 16 24 25 20 14 20 21 23 24 25 17 17 20 24 23 18 16 15 16 15 14 12 12 11 10
4 3 5 5 4 4 2 8 13 13 4 10 7 7 6 9 12 10 8 8 6 4 12 6 10 2 8 4 1 2 7 12 12 18 21 20 25 17 10 16 20 20 23 25 21 17 16 16 15 12 13 11 11 11
10 8 7 8 3 3 2 10 12 22 16 11 7 1 2 12 2 2 1 1 2 3 4 4 7 7 9 9 12 11 5 9 13 12 19 22 22 27 15 12 18 23 24 27 22 19 19 16 14 14 15 17 13 12
10 10 9 11 6 7 4 4 8 9 9 4 8 8 6 3 7 7 7 9 12 15 16 14 14 17 19 17 13 16 19 19 18 17 12 7 5 5 13 17 17 19 15 14 13 13 15 15 15 14 16 16 15 17
10 10 10 10 6 8 7 4 4 7 5 3 3 2 5 9 10 11 7 7 8 10 10 11 13 12 18 22 24 26 27 19 19 15 17 15 20 18 18 13 13 11 13 14 16 15 16 16 13 12 10 13 16 13
9 13 13 4 7 5 5 9 11 9 5 2 2 3 4 5 6 6 8 9 11 13 12 10 7 6 6 7 14 20 23 19 15 17 22 25 25 23 18 13 7 9 12 15 16 12 12 14 16 19 21 17 16 24
Wind_Direction
294 300 302 299 296 280 285 286 284 283 270 260 248 236 227 225 220 213 213 209 212 217 196 242 219 213 220 200 295 205 301 235 235 275 268 349 347 209 219 194 197 265 271 246 265 163 153 156 22 249 258 264 62 74
294 297 286 284 285 282 287 290 277 281 275 260 245 232 226 223 225 217 214 213 216 215 209 192 199 213 203 219 204 300 235 252 278 258 293 282 110 218 196 230 228 246 330 306 354 72 125 126 165 151 167 206 130 106
296 308 302 292 284 280 284 285 282 274 269 257 244 230 223 223 222 222 219 220 217 220 224 226 237 229 218 222 218 237 275 247 275 233 333 267 282 280 249 242 250 225 265 228 16 116 133 161 166 165 167 180 167 177
288 303 307 302 304 299 291 289 284 273 258 248 241 232 223 220 220 220 217 216 210 198 220 244 226 234 222 214 228 205 257 208 227 229 238 271 283 247 265 350 196 30 181 191 193 215 190 198 182 191 221 226 206 216
285 295 299 298 300 297 292 287 283 266 244 232 234 232 221 220 217 212 215 214 209 189 194 215 210 214 210 205 216 220 220 219 217 218 234 245 253 290 257 264 248 255 257 229 211 218 230 208 224 206 221 220 194 224
279 285 292 286 294 297 292 289 271 259 238 219 209 216 246 223 212 204 209 210 206 199 197 200 216 206 199 209 208 219 212 223 197 226 241 248 263 249 264 245 271 243 234 231 203 242 249 201 204 214 203 197 228 178
269 282 286 280 281 294 291 285 276 263 256 248 230 219 234 215 207 198 191 212 203 197 198 215 203 202 198 208 208 212 208 195 212 224 230 233 265 269 235 236 214 265 218 233 217 226 211 209 223 215 205 220 223 183
276 275 283 275 284 286 284 276 266 260 254 250 233 220 210 203 199 200 205 204 203 201 200 218 199 192 196 200 195 199 214 208 228 201 226 217 255 260 242 243 239 228 228 225 239 227 218 228 219 215 207 213 236 199
272 276 275 270 286 281 279 271 274 271 246 235 212 196 191 189 192 205 207 211 212 200 203 212 212 221 225 198 193 201 196 220 231 229 236 242 231 233 250 211 228 244 232 233 233 222 208 212 205 205 205 200 188 207
268 270 271 270 278 271 269 278 283 280 210 188 183 179 178 193 196 199 195 201 208 199 197 200 209 233 190 192 189 193 207 214 218 236 230 236 245 244 249 250 214 219 253 207 224 218 213 211 219 237 217 207 191 201
275 269 267 266 259 255 270 275 275 210 179 173 170 164 191 187 182 183 187 190 196 210 208 193 201 220 210 186 198 197 202 206 228 240 222 243 257 276 257 232 234 254 223 216 224 228 215 213 237 224 206 232 245 223
271 261 259 250 245 251 272 254 241 195 192 182 172 174 172 169 172 180 193 203 204 205 214 213 196 248 181 186 189 205 184 202 221 214 220 245 254 242 258 250 243 230 234 203 218 243 227 226 228 238 247 230 255 242
254 250 248 244 237 251 257 246 229 188 186 185 182 185 171 182 204 198 193 188 201 193 208 192 192 214 192 183 175 202 242 199 217 213 231 255 237 246 260 259 259 234 214 201 223 212 217 226 233 216 190 224 217 234
244 239 241 234 239 241 260 233 222 193 189 183 187 188 192 192 208 204 209 210 205 206 217 196 194 190 188 181 190 217 234 229 224 222 235 245 239 255 253 270 262 250 224 198 186 217 222 217 213 226 236 237 256 270
232 235 222 216 224 250 266 221 211 200 194 195 191 195 216 199 194 208 207 212 202 178 195 178 188 188 187 193 203 203 209 217 228 235 246 211 223 242 280 274 252 220 191 188 206 216 221 223 238 237 252 265 271 283
223 219 215 212 211 215 204 214 200 205 206 195 203 209 195 203 213 214 200 217 187 202 184 178 184 200 218 214 201 199 203 213 230 218 208 215 225 249 275 262 222 212 225 227 224 220 226 228 239 259 276 278 283 288
214 208 205 225 200 203 192 151 190 209 217 220 230 216 200 178 194 197 216 212 201 226 176 182 198 207 206 205 193 205 211 223 231 217 228 214 229 268 268 255 229 233 229 229 231 221 230 227 245 271 279 286 292 302
208 202 199 205 188 218 223 191 157 195 254 181 140 279 306 251 239 235 204 235 230 196 203 194 192 204 185 197 207 194 204 213 220 211 202 230 256 279 285 254 229 237 240 235 231 236 250 258 265 268 277 286 289 294
203 204 211 197 197 209 209 208 211 225 215 208 219 217 214 220 267 200 184 212 219 193 199 215 223 215 211 207 196 216 184 227 202 208 262 269 268 282 280 257 235 235 241 245 252 257 259 254 254 253 277 288 301 287
184 181 196 179 183 193 192 222 225 239 202 205 211 219 222 215 224 220 212 214 235 244 246 218 201 173 223 207 154 203 197 204 215 246 255 271 289 278 253 244 234 235 249 252 251 243 247 244 243 235 231 235 234 255
182 207 183 171 176 198 205 231 233 236 229 230 211 219 215 214 222 226 230 227 226 237 234 242 231 243 235 240 207 184 200 178 171 224 255 267 283 278 231 236 229 233 245 251 237 229 220 247 238 238 259 251 259 249
192 199 204 175 215 212 226 237 225 242 255 252 237 227 222 226 223 221 223 234 235 230 231 232 230 233 260 294 290 262 247 247 241 262 247 261 272 263 253 227 216 217 212 220 222 229 238 225 221 229 250 255 258 215
189 183 182 191 225 243 255 227 231 236 233 245 233 232 238 234 233 228 235 237 244 238 232 236 238 234 226 216 227 231 241 260 267 253 256 266 269 270 247 214 212 214 213 214 216 213 245 237 225 212 231 214 213 255
184 185 191 216 217 222 248 248 238 223 234 230 229 230 236 240 235 235 243 247 257 262 241 227 225 229 234 239 234 248 270 280 259 231 250 262 255 233 241 204 214 217 218 217 220 211 233 245 241 231 220 233 224 221
175 182 201 216 205 223 245 259 264 244 242 235 237 243 252 229 234 245 240 224 238 216 220 231 226 224 234 249 250 242 248 250 249 237 247 264 245 229 203 207 214 218 221 213 220 218 217 239 247 240 230 203 214 231
197 193 201 192 203 212 208 251 231 236 244 248 250 239 244 238 237 241 222 184 117 207 214 212 261 201 224 228 230 232 228 221 238 234 242 244 230 217 213 218 240 213 218 218 219 216 213 234 248 237 216 208 226 224
204 212 220 186 205 204 253 276 273 262 253 243 245 258 278 257 243 215 193 34 77 58 205 179 242 272 297 266 249 228 225 215 226 255 252 236 212 213 226 251 215 213 227 216 218 216 215 226 232 233 194 214 242 266
189 202 193 218 221 220 268 277 285 284 278 269 256 262 234 225 275 83 155 58 122 153 137 132 196 235 273 295 214 213 219 230 234 255 240 228 217 247 236 208 212 223 237 260 267 241 220 221 225 215 213 210 218 252
209 228 260 267 264 224 228 262 282 293 177 140 139 143 115 75 40 53 64 70 44 342 322 131 132 348 315 337 298 126 251 241 236 232 234 247 252 253 245 205 210 225 244 258 270 249 230 216 222 215 213 217 227 237
187 204 235 235 212 176 208 264 52 78 73 64 52 278 180 98 83 91 20 338 247 218 227 265 255 241 238 260 222 204 227 221 215 233 244 238 237 235 205 227 232 241 245 255 258 227 228 228 220 217 218 213 216 235
212 196 200 204 222 223 212 308 342 336 24 61 51 35 320 359 336 311 306 307 301 294 290 275 248 243 235 244 212 229 214 215 205 198 194 212 233 243 205 209 227 241 215 214 226 227 227 225 231 235 236 232 230 231
208 197 187 188 175 213 208 246 230 243 223 224 288 2 331 310 299 307 338 342 338 334 329 305 287 268 245 241 243 256 238 264 251 256 189 194 182 210 232 218 196 209 214 211 208 220 245 268 284 284 300 241 241 248
164 149 140 119 120 152 150 178 204 208 213 193 74 349 359 350 11 5 10 11 10 4 358 352 329 300 241 238 240 244 252 265 276 276 205 213 226 224 201 193 213 209 218 221 227 231 234 241 246 257 260 258 254 251
Height
3102 3100 3098 3096 3094 3093 3093 3092 3091 3090 3090 3090 3090 3093 3095 3098 3100 3101 3104 3109 3113 3114 3117 3122 3122 3124 3124 3125 3126 3125 3126 3125 3126 3124 3122 3122 3125 3123 3127 3126 3126 3126 3127 3127 3126 3122 3133 3133 3138 3140 3138 3139 3141 3139
3096 3094 3092 3091 3089 3088 3087 3086 3084 3084 3084 3084 3085 3087 3090 3094 3096 3098 3101 3103 3107 3110 3113 3113 3119 3121 3122 3123 3123 3124 3125 3124 3123 3124 3123 3123 3126 3126 3126 3126 3125 3128 3128 3128 3127 3127 3130 3133 3134 3136 3137 3137 3138 3141
3091 3089 3086 3084 3081 3080 3079 3079 3078 3078 3078 3079 3080 3082 3084 3088 3092 3095 3096 3099 3104 3107 3110 3112 3114 3116 3117 3120 3122 3124 3125 3124 3122 3122 3122 3123 3122 3123 3122 3123 3125 3125 3125 3128 3130 3129 3131 3134 3134 3136 3136 3137 3139 3140
3086 3084 3081 3079 3076 3075 3074 3073 3072 3072 3072 3073 3075 3077 3080 3082 3086 3090 3092 3095 3098 3103 3107 3109 3110 3113 3114 3118 3118 3120 3121 3121 3121 3121 3123 3123 3122 3122 3123 3122 3124 3125 3125 3128 3130 3130 3131 3132 3132 3133 3132 3134 3136 3136
3080 3078 3076 3074 3072 3071 3070 3068 3068 3068 3068 3068 3071 3074 3076 3078 3081 3084 3088 3093 3097 3101 3103 3106 3108 3109 3110 3114 3114 3116 3118 3119 3121 3122 3123 3123 3122 3121 3122 3122 3122 3123 3124 3126 3127 3127 3128 3130 3131 3131 3132 3132 3134 3134
3073 3072 3071 3070 3068 3067 3066 3065 3064 3065 3065 3066 3067 3070 3073 3075 3077 3080 3086 3090 3094 3097 3100 3103 3104 3106 3108 3110 3111 3113 3115 3117 3118 3121 3122 3122 3118 3121 3122 3121 3122 3122 3123 3123 3126 3125 3126 3128 3128 3128 3130 3132 3132 3132
3066 3066 3065 3065 3064 3063 3062 3061 3061 3061 3062 3063 3064 3066 3068 3071 3073 3077 3081 3083 3089 3093 3097 3100 3101 3101 3104 3106 3109 3111 3112 3114 3117 3118 3119 3119 3118 3118 3119 3119 3121 3120 3121 3121 3121 3122 3124 3125 3126 3127 3128 3130 3129 3132
3059 3059 3059 3059 3058 3057 3057 3056 3057 3056 3057 3058 3059 3062 3064 3067 3070 3075 3078 3081 3085 3090 3093 3095 3096 3098 3100 3103 3106 3108 3110 3112 3112 3114 3116 3116 3115 3116 3116 3117 3118 3118 3118 3118 3117 3118 3121 3122 3123 3124 3125 3126 3126 3129
3052 3052 3053 3053 3053 3053 3053 3053 3052 3051 3051 3053 3056 3058 3061 3064 3069 3071 3075 3078 3082 3087 3088 3089 3093 3097 3095 3099 3103 3105 3107 3110 3111 3111 3112 3114 3113 3112 3112 3112 3115 3113 3113 3115 3115 3116 3118 3120 3120 3120 3122 3123 3125 3127
3046 3047 3047 3047 3048 3049 3049 3048 3047 3045 3046 3049 3054 3057 3061 3063 3067 3070 3073 3076 3077 3080 3082 3083 3090 3088 3093 3096 3099 3102 3103 3106 3106 3108 3108 3107 3107 3107 3107 3107 3109 3109 3109 3111 3112 3113 3115 3116 3115 3117 3119 3119 3121 3122
3042 3042 3042 3043 3044 3045 3045 3044 3044 3044 3046 3048 3051 3057 3059 3063 3066 3069 3072 3074 3075 3076 3077 3079 3084 3084 3089 3093 3094 3097 3098 3101 3101 3102 3103 3102 3100 3101 3100 3101 3103 3103 3106 3107 3109 3108 3110 3111 3111 3112 3113 3115 3116 3117
3038 3038 3039 3040 3040 3041 3041 3041 3042 3043 3045 3047 3051 3055 3058 3062 3065 3068 3069 3070 3070 3071 3073 3075 3078 3082 3076 3085 3089 3091 3094 3097 3096 3098 3098 3095 3097 3096 3096 3096 3097 3099 3100 3103 3105 3104 3106 3108 3108 3110 3111 3111 3112 3112
3034 3034 3035 3035 3036 3037 3037 3038 3039 3041 3044 3048 3051 3052 3055 3060 3059 3060 3060 3062 3065 3067 3069 3072 3077 3077 3078 3084 3085 3088 3085 3089 3092 3091 3091 3090 3093 3091 3092 3093 3093 3095 3096 3099 3100 3101 3101 3103 3105 3105 3106 3107 3107 3107
3030 3030 3032 3032 3033 3033 3033 3034 3036 3038 3040 3044 3047 3050 3052 3052 3052 3054 3057 3059 3062 3064 3065 3069 3073 3075 3078 3082 3084 3086 3086 3088 3086 3086 3086 3088 3086 3088 3089 3090 3090 3091 3092 3095 3097 3096 3098 3100 3101 3101 3102 3102 3103 3103
3026 3027 3028 3030 3031 3031 3031 3032 3034 3036 3039 3042 3045 3045 3046 3047 3048 3049 3052 3055 3057 3061 3063 3066 3071 3076 3075 3077 3080 3082 3082 3080 3080 3081 3082 3081 3083 3086 3086 3086 3086 3087 3089 3091 3091 3093 3094 3095 3096 3096 3097 3097 3097 3096
3023 3024 3026 3028 3029 3029 3031 3031 3032 3035 3037 3040 3041 3042 3043 3045 3046 3047 3050 3052 3054 3057 3060 3064 3066 3067 3067 3069 3074 3073 3075 3075 3075 3075 3075 3078 3080 3082 3083 3083 3083 3085 3085 3086 3087 3089 3090 3091 3091 3091 3091 3091 3090 3090
3019 3022 3024 3025 3027 3028 3030 3031 3032 3034 3035 3036 3038 3039 3040 3040 3044 3046 3048 3050 3051 3048 3048 3056 3059 3062 3063 3065 3065 3067 3069 3071 3072 3068 3071 3074 3076 3078 3079 3079 3079 3081 3082 3083 3084 3085 3086 3087 3086 3086 3086 3086 3084 3085
3017 3019 3021 3023 3026 3027 3029 3031 3034 3034 3034 3034 3035 3037 3039 3042 3041 3041 3045 3045 3041 3049 3051 3053 3056 3055 3056 3058 3060 3063 3066 3066 3066 3067 3066 3070 3073 3074 3075 3075 3076 3076 3078 3079 3079 3080 3081 3082 3082 3082 3081 3082 3081 3080
3015 3017 3019 3022 3024 3025 3027 3030 3032 3033 3033 3035 3037 3039 3041 3042 3041 3042 3041 3044 3046 3044 3049 3051 3051 3050 3052 3055 3058 3059 3062 3062 3062 3063 3063 3066 3069 3070 3070 3071 3072 3073 3074 3075 3076 3077 3077 3078 3078 3078 3078 3077 3078 3080
3014 3016 3018 3020 3023 3024 3027 3029 3030 3030 3030 3033 3034 3035 3038 3040 3041 3043 3045 3047 3046 3046 3041 3046 3047 3047 3051 3048 3052 3057 3059 3060 3061 3062 3062 3062 3065 3065 3066 3067 3068 3068 3070 3070 3072 3072 3073 3074 3075 3075 3076 3076 3076 3076
3013 3015 3016 3019 3022 3024 3025 3026 3026 3026 3027 3027 3030 3031 3031 3034 3037 3040 3041 3043 3044 3044 3046 3047 3048 3050 3046 3050 3051 3054 3056 3058 3061 3061 3059 3059 3061 3061 3061 3063 3064 3065 3065 3066 3067 3068 3069 3070 3071 3071 3071 3072 3072 3072
3012 3015 3017 3019 3020 3022 3023 3024 3025 3025 3025 3025 3026 3027 3029 3030 3031 3033 3035 3036 3037 3039 3042 3044 3046 3048 3048 3045 3047 3051 3053 3052 3054 3056 3056 3056 3057 3057 3057 3059 3061 3062 3063 3064 3064 3065 3065 3067 3068 3068 3068 3068 3069 3070
3012 3013 3016 3018 3020 3021 3022 3020 3021 3021 3023 3023 3024 3025 3026 3027 3028 3030 3027 3028 3030 3032 3034 3036 3038 3039 3041 3044 3045 3046 3045 3047 3049 3050 3050 3051 3052 3053 3054 3055 3059 3060 3060 3062 3062 3063 3061 3062 3064 3066 3065 3066 3068 3067
3012 3014 3016 3017 3017 3018 3019 3018 3018 3019 3020 3021 3021 3022 3022 3022 3023 3023 3022 3025 3026 3026 3027 3028 3032 3033 3036 3038 3040 3041 3041 3042 3043 3046 3045 3046 3046 3047 3050 3053 3056 3057 3058 3059 3059 3059 3058 3058 3059 3061 3062 3063 3064 3066
3013 3015 3015 3015 3015 3017 3018 3018 3017 3017 3018 3019 3019 3019 3019 3020 3020 3020 3021 3023 3021 3020 3023 3024 3026 3028 3031 3033 3035 3035 3037 3038 3040 3041 3040 3042 3042 3044 3047 3050 3052 3053 3054 3055 3054 3054 3054 3053 3054 3055 3057 3058 3062 3062
3010 3011 3012 3012 3014 3015 3015 3016 3016 3016 3016 3016 3016 3017 3017 3017 3019 3018 3017 3018 3015 3019 3022 3021 3018 3022 3023 3025 3028 3030 3032 3033 3036 3037 3036 3040 3040 3041 3043 3045 3046 3048 3049 3049 3050 3050 3050 3050 3050 3051 3052 3054 3056 3057
3009 3010 3010 3012 3012 3014 3015 3014 3014 3013 3014 3014 3014 3015 3016 3017 3016 3016 3016 3013 3012 3022 3022 3022 3024 3021 3019 3020 3020 3023 3025 3027 3029 3031 3033 3034 3034 3038 3039 3040 3040 3043 3042 3044 3045 3045 3046 3047 3048 3048 3050 3053 3053 3053
3008 3008 3010 3011 3011 3012 3013 3013 3012 3011 3011 3010 3012 3013 3015 3015 3014 3009 3004 3010 3020 3020 3022 3023 3022 3020 3019 3017 3018 3019 3021 3023 3023 3025 3028 3027 3029 3031 3031 3032 3036 3038 3038 3038 3041 3041 3042 3044 3045 3046 3048 3049 3051 3051
3007 3010 3010 3010 3011 3012 3013 3012 3010 3007 3006 3008 3009 3010 3013 3013 3011 3015 3018 3020 3021 3021 3016 3013 3017 3019 3018 3018 3017 3018 3018 3020 3020 3022 3023 3025 3025 3025 3026 3029 3031 3033 3035 3035 3037 3038 3038 3040 3042 3043 3045 3047 3048 3049
3006 3007 3009 3010 3011 3012 3013 3011 3010 3010 3010 3010 3010 3006 3003 3011 3016 3016 3017 3018 3018 3019 3018 3017 3017 3017 3015 3016 3016 3016 3017 3017 3018 3019 3019 3019 3019 3018 3018 3022 3027 3029 3031 3031 3032 3033 3035 3037 3038 3040 3041 3043 3045 3046
3004 3005 3007 3008 3009 3012 3014 3015 3014 3014 3014 3011 3012 3010 3015 3014 3014 3015 3015 3014 3014 3012 3011 3010 3011 3009 3009 3010 3011 3013 3011 3010 3010 3012 3014 3017 3017 3019 3021 3025 3025 3026 3028 3029 3029 3030 3032 3033 3034 3036 3037 3038 3040 3041
3003 3004 3006 3008 3010 3012 3012 3015 3018 3017 3015 3016 3017 3017 3017 3015 3014 3013 3012 3011 3010 3008 3006 3004 3002 3001 3004 3004 3004 3006 3004 3003 3006 3007 3012 3015 3016 3017 3018 3021 3022 3024 3025 3025 3027 3029 3029 3029 3030 3031 3032 3034 3035 3036
3002 3005 3007 3008 3010 3012 3013 3014 3016 3015 3016 3017 3017 3016 3015 3015 3014 3014 3012 3011 3009 3006 3004 3001 2999 2999 2999 3000 3001 3001 3002 3003 3005 3006 3008 3011 3013 3012 3015 3016 3019 3022 3023 3024 3024 3024 3026 3028 3029 3030 3028 3029 3031 3030